Погода в Медаеве

Россия / Республика Мордовия     54°26′26″N   46°00′11″E
темп.,
°C
ветер,
м/с
пор.,
м/с
влажн.,
%
обл.,
%
осадки,
мм/ч
давл.,
гПа
погр.,
м
17 сентября, пт
пт1700:00+7сз4757100 0.0 1016567
03:00+7сз4758100 0.0 1017490
06:00+6зсз3662100 0.0 1017444
09:00+7сз4561100 0.0 1018833
12:00+8зсз4455100 0.1 10171352
15:00+8сз4556100 0.3 10171217
18:00+7сз356499 0.2 1017201
21:00+6ссз367494 0.4 1018230
18 сентября, сб
сб1800:00+3ссз22775 0.0 101930
03:00+2зсз35765 0.0 102077
06:00+1сз36885 0.0 1021139
09:00+6ссз467396 0.0 1022676
12:00+7с3464100 0.0 1023808
15:00+8ссз4555100 0.0 10231345
18:00+7сз246012 0.0 1024145
21:00+3сз227019 0.0 102414
19 сентября, вс
вс1900:00+2св2271100 0.0 102511
03:00+2ссв2273100 0.0 102626
06:00+1св2279100 0.0 102730
09:00+6всв335971 0.0 1027495
12:00+9св224573 0.0 10261004
15:00+10всв2240100 0.0 10251081
18:00+7в3351100 0.0 102530
21:00+6в345198 0.0 102681
20 сентября, пн
пн2000:00+5в4853100 0.0 1026208
03:00+5вюв4954100 0.0 1025269
06:00+5в51054100 0.0 1025363
09:00+5вюв61167100 0.4 1025469
12:00+5вюв71384100 1.9 1025497
15:00+5вюв81488100 3.9 1025489
18:00+5вюв81590100 0.8 1025516
21:00+5вюв71591100 1.5 1025566
21 сентября, вт
вт2100:00+6вюв71491100 0.3 1024581
03:00+6вюв61393100 0.7 1024517
06:00+6вюв61292100 0.2 1024489
09:00+6вюв61387100 0.4 1024510
12:00+8вюв71381100 0.0 1023479
15:00+8вюв7137599 0.0 1023444
18:00+8вюв7137095 0.0 1022419
21:00+8вюв71563100 0.0 1021422